Location: Medlow Airstrip Trail, Medlow Bath NSW 2780, Australia
(33.6682°S, 150.3233°E)
Time: 18:14:39
(UTC+11:00)

Explorer 11/Cluster Stage 4 - Pass Details

Date: 27 September 2019
Orbit: 467 x 1259 km, 28.8° (Epoch: 22 October)

Event Time Altitude Azimuth Distance (km) Brightness Sun altitude
Rises 06:53:37 0° 311° (NW) 2,552 8.8 14.0°
Reaches altitude 10° 06:55:59 10° 325° (NW) 1,735 8.2 14.5°
Maximum altitude 06:59:12 24° 21° (NNE) 1,182 8.0 15.1°
Drops below altitude 10° 07:02:55 10° 75° (ENE) 2,012 11.3 15.9°
Sets 07:05:52 0° 87° (E) 3,072 11.4 16.5°
